2023-041A (55981 NORAD) Tracking and Keplerian Element Data

This shows tracking and keplerian element data for the satellite.

Feedback or suggestion? Click here.




ElementValue
Catalog55981
Name2023-041A
Epoch Orbit445
Epoch Day112.19863168
Epoch Year2023
RAAN85.4165
Inclination42.012
Eccentricity0.0014548
Argument of Perigee160.7343
Mean Anonmoly199.4054
Mean Motion15.50936493
Decay Rate0.00313741
L11 55981U 23041A 23112.19863168 .00313741 00000+0 50564-2 0 9999
L22 55981 42.0120 85.4165 0014548 160.7343 199.4054 15.50936493 4454



Live tracking and technical data element details for 2023-041A (NORAD 55981). 2023-041A can be tracked NOW for your location showing map with azimuth and elevation plus other details from your city location.







IsCatalogInMostPopularTable: catalog: 55981, numindb: 6
Update: records affected: 1



GetName: 55981 2023-041A

Hit Count: updated at: Tue, 06 Jun 2023 03:55:08 GMT